CPA767 VHHH-VVTS

Flight info

Callsign CPA767
Flight time N/A
Altitude 36000
Route PECAN V12 EPDOS L642 EPKAL/K0865F360 L642 SOSPA W15 VETOM
Aircraft A333/H-SDE3GHIJ2J3J5M1RVWXY/LB2D1

Departure

Time N/A
Airport Hong Kong International Airport (VHHH)

Arrival

Time 2026-05-05 07:36
Airport Tan Son Nhat International Airport (VVTS)
Time Latitude Longitude Altitude Speed Heading
2026-05-05 07:23 11.18429 107.47112 12548 ft 371 kts 240°
2026-05-05 07:23 11.17168 107.44831 12091 ft 368 kts 240°
2026-05-05 07:23 11.15917 107.42569 11648 ft 366 kts 240°
2026-05-05 07:23 11.14670 107.40316 11255 ft 361 kts 240°
2026-05-05 07:24 11.13461 107.38131 11154 ft 347 kts 240°
2026-05-05 07:24 11.12295 107.36023 11034 ft 334 kts 240°
2026-05-05 07:24 11.11171 107.33993 10882 ft 324 kts 240°
2026-05-05 07:24 11.10095 107.32049 10739 ft 314 kts 240°
2026-05-05 07:25 11.09038 107.30141 10597 ft 305 kts 240°
2026-05-05 07:25 11.07993 107.28254 10237 ft 306 kts 240°
2026-05-05 07:25 11.06950 107.26373 9879 ft 305 kts 239°
2026-05-05 07:25 11.05909 107.24494 9531 ft 304 kts 239°
2026-05-05 07:26 11.04872 107.22623 9188 ft 302 kts 239°
2026-05-05 07:26 11.03845 107.20771 8928 ft 298 kts 240°
2026-05-05 07:26 11.02836 107.18950 8726 ft 293 kts 240°
2026-05-05 07:26 11.01839 107.17153 8407 ft 292 kts 240°
2026-05-05 07:27 11.00842 107.15356 8079 ft 291 kts 240°
2026-05-05 07:27 10.99849 107.13555 7765 ft 292 kts 241°
2026-05-05 07:27 10.98869 107.11750 7418 ft 292 kts 241°
2026-05-05 07:27 10.97883 107.09944 7109 ft 291 kts 241°
2026-05-05 07:28 10.96895 107.08147 6778 ft 290 kts 241°
2026-05-05 07:28 10.95918 107.06378 6438 ft 290 kts 241°
2026-05-05 07:28 10.94929 107.04590 6098 ft 289 kts 241°
2026-05-05 07:28 10.93942 107.02809 5766 ft 288 kts 240°
2026-05-05 07:29 10.92961 107.01040 5422 ft 286 kts 240°
2026-05-05 07:29 10.91987 106.99286 5112 ft 284 kts 240°
2026-05-05 07:29 10.91018 106.97537 4781 ft 282 kts 240°
2026-05-05 07:29 10.90059 106.95812 4551 ft 277 kts 241°
2026-05-05 07:30 10.89122 106.94127 4356 ft 271 kts 240°
2026-05-05 07:30 10.87398 106.90837 4010 ft 257 kts 252°
2026-05-05 07:30 10.87205 106.89050 3844 ft 255 kts 272°
2026-05-05 07:31 10.87366 106.87258 3677 ft 253 kts 276°
2026-05-05 07:31 10.87582 106.85511 3478 ft 250 kts 277°
2026-05-05 07:31 10.87801 106.83776 3219 ft 244 kts 277°
2026-05-05 07:31 10.87971 106.82093 3019 ft 231 kts 271°
2026-05-05 07:32 10.87804 106.80521 2786 ft 218 kts 255°
2026-05-05 07:32 10.87300 106.79104 2543 ft 208 kts 247°
2026-05-05 07:32 10.86764 106.77759 2265 ft 201 kts 249°
2026-05-05 07:32 10.86287 106.76462 2006 ft 191 kts 249°
2026-05-05 07:33 10.85833 106.75240 1768 ft 177 kts 249°
2026-05-05 07:33 10.85408 106.74115 1551 ft 164 kts 249°
2026-05-05 07:33 10.85019 106.73074 1336 ft 152 kts 248°
2026-05-05 07:33 10.84655 106.72092 1131 ft 147 kts 246°
2026-05-05 07:34 10.84295 106.71118 969 ft 151 kts 245°
2026-05-05 07:34 10.83928 106.70115 866 ft 152 kts 245°
2026-05-05 07:34 10.83555 106.69114 653 ft 149 kts 244°
2026-05-05 07:34 10.83187 106.68141 419 ft 146 kts 243°
2026-05-05 07:35 10.82821 106.67183 247 ft 145 kts 244°
2026-05-05 07:35 10.82454 106.66222 62 ft 144 kts 244°
2026-05-05 07:35 10.82130 106.65379 41 ft 104 kts 249°
2026-05-05 07:35 10.81912 106.64806 40 ft 52 kts 247°
2026-05-05 07:36 10.81770 106.64615 42 ft 30 kts 220°
2026-05-05 07:36 10.81651 106.64515 42 ft 20 kts 224°
2026-05-05 07:36 10.81591 106.64418 40 ft 12 kts 250°
2026-05-05 07:36 10.81560 106.64335 40 ft 10 kts 246°
2026-05-05 07:37 10.81501 106.64309 40 ft 10 kts 171°
2026-05-05 07:37 10.81433 106.64333 41 ft 10 kts 159°
2026-05-05 07:37 10.81358 106.64363 41 ft 12 kts 159°
2026-05-05 07:37 10.81276 106.64396 40 ft 10 kts 151°
2026-05-05 07:38 10.81234 106.64452 41 ft 10 kts 119°
2026-05-05 07:38 10.81218 106.64521 43 ft 10 kts 100°
2026-05-05 07:38 10.81208 106.64592 44 ft 11 kts 95°
2026-05-05 07:38 10.81222 106.64685 42 ft 15 kts 70°
2026-05-05 07:39 10.81260 106.64786 42 ft 15 kts 69°
2026-05-05 07:39 10.81295 106.64876 42 ft 13 kts 69°
2026-05-05 07:39 10.81329 106.64965 42 ft 13 kts 68°
2026-05-05 07:39 10.81331 106.65045 41 ft 11 kts 131°
2026-05-05 07:40 10.81269 106.65076 41 ft 8 kts 147°
2026-05-05 07:40 10.81257 106.65118 41 ft 7 kts 83°
2026-05-05 07:40 10.81273 106.65170 40 ft 8 kts 71°
2026-05-05 07:40 10.81293 106.65224 41 ft 8 kts 72°
2026-05-05 07:41 10.81273 106.65259 41 ft 6 kts 146°
2026-05-05 07:41 10.81251 106.65268 41 ft 2 kts 157°
2026-05-05 07:41 10.81251 106.65269 41 ft 0 kts 157°